Regional Weather Roundup
Issued by NWS Huntsville, AL

Home | Current Version | Previous Version | Text Only | Print | Product List | Glossary On
Versions: 1 2 3 4 5 6 7 8 9 10 11 12 13 14 15 16 17 18 19 20 21 22 23 24 25 26 27 28 29 30 31 32 33 34 35 36 37 38 39 40 41 42 43 44 45 46 47 48 49 50
000
ASUS44 KHUN 240410
RWRHUN

WEATHER ROUNDUP FOR THE TENNESSEE VALLEY
NATIONAL WEATHER SERVICE HUNTSVILLE AL
1000 PM CST THU FEB 23 2017

ALZ001>004-240500-
NORTHWEST ALABAMA

CITY           SKY/WX    TMP DP  RH WIND       PRES   REMARKS
COURTLAND HCN    N/A     63 N/A N/A S5          N/A
RUSSELLVILLE     N/A     63 N/A N/A MISG        N/A
SHOALS AIRPORT CLEAR     60  54  80 SE7       29.78F
SHOALS TVA RES   N/A     61 N/A N/A MISG        N/A
$$

ALZ005>007-016-240500-
NORTH CENTRAL ALABAMA

CITY           SKY/WX    TMP DP  RH WIND       PRES   REMARKS
CULLMAN AG STN   N/A     63 N/A N/A SE3         N/A
DECATUR AP     CLEAR     61  57  87 SE6       29.80S
HUNTSVILLE AP  CLEAR     61  56  83 SE7       29.80S
MERIDIANVILLE  CLEAR     61  54  77 S6        29.81S
REDSTONE ARSN  CLEAR     62  56  82 S7        29.80S
VINEMONT AP    FAIR      63  55  77 SE7       29.84S
$$

ALZ008>010-240500-
NORTHEAST ALABAMA

CITY           SKY/WX    TMP DP  RH WIND       PRES   REMARKS
ALBERTVILLE    CLEAR     61  61 100 SE3       29.84R
FORT PAYNE     CLEAR     52  50  93 CALM      29.85S
SCOTTSBORO AP  CLEAR     55  55 100 CALM      29.84S
SCOTTSBORO HCN   N/A     54 N/A N/A MISG        N/A
VALLEY HEAD      N/A     54 N/A N/A MISG        N/A
$$

TNZ076-096-097-240500-
SOUTHEASTERN MIDDLE TENNESSEE

CITY           SKY/WX    TMP DP  RH WIND       PRES   REMARKS
TULLAHOMA      CLEAR     61  54  77 S5        29.81F
WINCHESTER     CLEAR     55  52  88 CALM      29.82S
$$

...SURROUNDING SITES...

CITY           SKY/WX    TMP DP  RH WIND       PRES   REMARKS
ATLANTA        PTCLDY    64  52  64 SE5       29.88R
ANNISTON       CLEAR     58  55  90 CALM      29.85R
BIRMINGHAM     CLEAR     65  57  75 SE6       29.85R
CHATTANOOGA    PTCLDY    59  53  80 CALM      29.84R
CORINTH        FAIR      63  57  82 SE8       29.73S
DALTON         CLEAR     63  52  67 SE7       29.86R
GADSDEN        CLEAR     56  54  93 CALM      29.85R
GOLDEN TRNGL   CLEAR     63  54  72 S9        29.73S
HALEYVILLE     FAIR      61  56  83 SE7       29.82S
JACKSON TN     CLEAR     65  58  78 S12       29.71R
MEMPHIS        CLEAR     65  60  84 SE12      29.68R
NASHVILLE      PTCLDY    65  54  67 S14       29.76S
OXFORD MS      FAIR      61  57  88 S9        29.74S
ROME           CLEAR     57  53  86 CALM      29.85R
SAVANNAH       CLEAR     64  57  77 S9        29.73S
TUPELO         CLEAR     63  57  81 SE10      29.75R
TUSCALOOSA     CLEAR     58  56  93 CALM      29.81R
$$

...GULF COAST WEATHER...

CITY           SKY/WX    TMP DP  RH WIND       PRES   REMARKS
GULFPORT       CLEAR     63  62  97 S5        29.83S
PASCAGOULA     PTCLDY    56  54  93 CALM      29.85R
MOBILE         PTCLDY    61  59  93 S5        29.85R FOG
GULF SHORES    FOG       58  58 100 CALM      29.85S VSB<1/4
PENSACOLA      CLEAR     61  60  97 CALM      29.84S FOG
DESTIN         CLEAR     68  68 100 CALM      29.84R
PANAMA CITY    CLEAR     63  61  94 CALM      29.83S
APPALACHICOLA  PTCLDY    63  63 100 NE3       29.82R
$$




USA.gov is the U.S. government's official web portal to all federal, state and local government web resources and services.